• In United Kingdom
  • List of Countries
  • For 7 days
  • Water Temperature
  • Satellite Maps
  • Weather Map
  • Weather Widgets
  • user-avatar
    Login

    Hourly Weather Novonikolaevka

    Today, 22 October, Monday

    Time Temperature Precipitation Wind Pressure Humidity
    00:00 +13°C° 0 mm 4 mps 754 mmHg 77%
    01:00 +12°C° 0 mm 4 mps 754 mmHg 80%
    02:00 +12°C° 0 mm 3 mps 754 mmHg 82%
    03:00 +12°C° 0.3 mm 3 mps 753 mmHg 84%
    04:00 +12°C° 0.3 mm 3 mps 753 mmHg 86%
    05:00 +11°C° 0.3 mm 3 mps 753 mmHg 88%
    06:00 +11°C° 1.2 mm 4 mps 753 mmHg 88%
    07:00 +12°C° 1.2 mm 4 mps 754 mmHg 88%
    08:00 +12°C° 1.2 mm 4 mps 754 mmHg 88%
    09:00 +12°C° 1.1 mm 4 mps 754 mmHg 86%
    10:00 +13°C° 1.1 mm 4 mps 753 mmHg 83%
    11:00 +13°C° 1.1 mm 4 mps 753 mmHg 80%
    12:00 +13°C° 0.2 mm 4 mps 753 mmHg 79%
    13:00 +13°C° 0.2 mm 4 mps 753 mmHg 78%
    14:00 +14°C° 0.2 mm 4 mps 753 mmHg 77%
    15:00 +13°C° 0.1 mm 4 mps 753 mmHg 80%
    16:00 +13°C° 0.1 mm 4 mps 753 mmHg 82%
    17:00 +12°C° 0.1 mm 3 mps 753 mmHg 84%
    18:00 +12°C° 0 mm 3 mps 752 mmHg 86%
    19:00 +11°C° 0 mm 3 mps 752 mmHg 87%
    20:00 +11°C° 0 mm 3 mps 752 mmHg 89%
    21:00 +10°C° 0 mm 3 mps 752 mmHg 90%
    22:00 +10°C° 0 mm 3 mps 752 mmHg 90%
    23:00 +10°C° 0 mm 3 mps 752 mmHg 90%

    Tomorrow, 23 October, Tuesday

    Time Temperature Precipitation Wind Pressure Humidity
    00:00 +9°C° 0 mm 3 mps 752 mmHg 91%
    01:00 +9°C° 0 mm 3 mps 752 mmHg 91%
    02:00 +9°C° 0 mm 3 mps 752 mmHg 91%
    03:00 +8°C° 0 mm 3 mps 752 mmHg 91%
    04:00 +8°C° 0 mm 2 mps 752 mmHg 91%
    05:00 +8°C° 0 mm 2 mps 752 mmHg 91%
    06:00 +8°C° 0 mm 3 mps 752 mmHg 85%
    07:00 +9°C° 0 mm 3 mps 752 mmHg 79%
    08:00 +10°C° 0 mm 3 mps 752 mmHg 74%
    09:00 +11°C° 0 mm 3 mps 752 mmHg 65%
    10:00 +12°C° 0 mm 4 mps 752 mmHg 56%
    11:00 +14°C° 0 mm 4 mps 751 mmHg 47%
    12:00 +14°C° 0 mm 4 mps 751 mmHg 44%
    13:00 +14°C° 0 mm 5 mps 750 mmHg 42%
    14:00 +15°C° 0 mm 5 mps 750 mmHg 40%
    15:00 +14°C° 0 mm 4 mps 749 mmHg 42%
    16:00 +12°C° 0 mm 4 mps 749 mmHg 45%
    17:00 +11°C° 0 mm 3 mps 749 mmHg 48%
    18:00 +11°C° 0 mm 3 mps 748 mmHg 50%
    19:00 +10°C° 0 mm 3 mps 748 mmHg 51%
    20:00 +10°C° 0 mm 3 mps 748 mmHg 53%
    21:00 +9°C° 0 mm 3 mps 748 mmHg 54%
    22:00 +8°C° 0 mm 4 mps 747 mmHg 54%
    23:00 +8°C° 0 mm 4 mps 747 mmHg 55%

    Day after tomorrow, 24 October, Wednesday

    Time Temperature Precipitation Wind Pressure Humidity
    00:00 +8°C° 0 mm 4 mps 746 mmHg 57%
    01:00 +8°C° 0 mm 5 mps 745 mmHg 58%
    02:00 +8°C° 0 mm 5 mps 745 mmHg 60%
    03:00 +9°C° 0 mm 6 mps 744 mmHg 62%
    04:00 +9°C° 0 mm 6 mps 743 mmHg 65%
    05:00 +9°C° 0 mm 7 mps 742 mmHg 67%
    06:00 +10°C° 0.5 mm 8 mps 741 mmHg 70%
    07:00 +10°C° 0.5 mm 8 mps 740 mmHg 73%
    08:00 +11°C° 0.5 mm 9 mps 740 mmHg 75%
    09:00 +11°C° 1.4 mm 9 mps 739 mmHg 76%
    10:00 +11°C° 1.4 mm 9 mps 738 mmHg 77%
    11:00 +11°C° 1.4 mm 10 mps 737 mmHg 77%
    12:00 +11°C° 1.2 mm 9 mps 737 mmHg 77%
    13:00 +11°C° 1.2 mm 9 mps 736 mmHg 77%
    14:00 +11°C° 1.2 mm 8 mps 735 mmHg 77%
    15:00 +11°C° 0.5 mm 8 mps 735 mmHg 77%
    16:00 +11°C° 0.5 mm 7 mps 734 mmHg 77%
    17:00 +11°C° 0.5 mm 6 mps 734 mmHg 76%
    18:00 +11°C° 0.3 mm 6 mps 733 mmHg 78%
    19:00 +10°C° 0.3 mm 6 mps 733 mmHg 80%
    20:00 +10°C° 0.3 mm 7 mps 733 mmHg 82%
    21:00 +10°C° 0.3 mm 7 mps 732 mmHg 83%
    22:00 +10°C° 0.3 mm 7 mps 732 mmHg 83%
    23:00 +10°C° 0.3 mm 7 mps 732 mmHg 84%

    25 October, Thursday

    Time Temperature Precipitation Wind Pressure Humidity
    00:00 +9°C° 0.8 mm 7 mps 732 mmHg 81%
    01:00 +8°C° 0.8 mm 7 mps 732 mmHg 79%
    02:00 +5°C° 0.8 mm 7 mps 732 mmHg 76%
    03:00 +5°C° 0 mm 7 mps 733 mmHg 73%
    04:00 +4°C° 0 mm 7 mps 733 mmHg 71%
    05:00 +3°C° 0 mm 7 mps 734 mmHg 68%
    06:00 +4°C° 0 mm 7 mps 735 mmHg 70%
    07:00 +4°C° 0 mm 8 mps 735 mmHg 71%
    08:00 +5°C° 0 mm 8 mps 736 mmHg 73%
    09:00 +6°C° 0 mm 8 mps 736 mmHg 67%
    10:00 +7°C° 0 mm 8 mps 737 mmHg 61%
    11:00 +9°C° 0 mm 8 mps 737 mmHg 55%
    12:00 +9°C° 0.1 mm 8 mps 738 mmHg 54%
    13:00 +9°C° 0.1 mm 7 mps 738 mmHg 53%
    14:00 +9°C° 0.1 mm 7 mps 738 mmHg 52%
    15:00 +9°C° 0.1 mm 7 mps 739 mmHg 56%
    16:00 +8°C° 0.1 mm 6 mps 740 mmHg 59%
    17:00 +8°C° 0.1 mm 6 mps 740 mmHg 63%
    18:00 +7°C° 0 mm 6 mps 741 mmHg 65%
    19:00 +6°C° 0 mm 5 mps 742 mmHg 67%
    20:00 +5°C° 0 mm 5 mps 742 mmHg 69%
    21:00 +5°C° 0 mm 5 mps 743 mmHg 69%
    22:00 +5°C° 0 mm 5 mps 743 mmHg 68%
    23:00 +4°C° 0 mm 4 mps 744 mmHg 68%

    26 October, Friday

    Time Temperature Precipitation Wind Pressure Humidity
    00:00 +4°C° 0 mm 4 mps 744 mmHg 69%
    01:00 +4°C° 0 mm 4 mps 744 mmHg 70%
    02:00 +4°C° 0 mm 4 mps 745 mmHg 72%
    03:00 +4°C° 0 mm 4 mps 745 mmHg 71%
    04:00 +4°C° 0 mm 4 mps 746 mmHg 70%
    05:00 +4°C° 0 mm 4 mps 746 mmHg 69%
    06:00 +4°C° 0 mm 4 mps 746 mmHg 68%
    07:00 +5°C° 0 mm 5 mps 747 mmHg 67%
    08:00 +4°C° 0 mm 6 mps 747 mmHg 66%
    09:00 +5°C° 0 mm 6 mps 747 mmHg 63%
    10:00 +7°C° 0 mm 6 mps 747 mmHg 61%
    11:00 +7°C° 0 mm 6 mps 747 mmHg 58%
    12:00 +8°C° 0.1 mm 6 mps 747 mmHg 60%
    13:00 +8°C° 0.1 mm 5 mps 747 mmHg 61%
    14:00 +8°C° 0.1 mm 5 mps 747 mmHg 63%
    15:00 +8°C° 0 mm 4 mps 748 mmHg 66%
    16:00 +9°C° 0 mm 3 mps 748 mmHg 70%
    17:00 +8°C° 0 mm 2 mps 749 mmHg 74%
    18:00 +8°C° 0 mm 2 mps 749 mmHg 77%
    19:00 +7°C° 0 mm 2 mps 750 mmHg 81%
    20:00 +7°C° 0 mm 3 mps 750 mmHg 85%
    21:00 +7°C° 0 mm 3 mps 751 mmHg 86%
    22:00 +7°C° 0 mm 3 mps 752 mmHg 87%
    23:00 +7°C° 0 mm 3 mps 752 mmHg 88%

    27 October, Saturday

    Time Temperature Precipitation Wind Pressure Humidity
    00:00 +7°C° 0 mm 3 mps 752 mmHg 88%
    01:00 +5°C° 0 mm 3 mps 753 mmHg 88%
    02:00 +6°C° 0 mm 2 mps 753 mmHg 88%
    03:00 +5°C° 0 mm 3 mps 754 mmHg 89%
    04:00 +5°C° 0 mm 3 mps 754 mmHg 89%
    05:00 +5°C° 0 mm 3 mps 754 mmHg 89%
    06:00 +7°C° 0 mm 3 mps 754 mmHg 84%
    07:00 +7°C° 0 mm 4 mps 755 mmHg 79%
    08:00 +8°C° 0 mm 4 mps 755 mmHg 74%
    09:00 +10°C° 0 mm 5 mps 755 mmHg 68%
    10:00 +13°C° 0 mm 6 mps 755 mmHg 61%
    11:00 +15°C° 0 mm 7 mps 755 mmHg 55%
    12:00 +16°C° 0 mm 7 mps 755 mmHg 54%
    13:00 +16°C° 0 mm 7 mps 754 mmHg 54%
    14:00 +16°C° 0 mm 7 mps 754 mmHg 53%
    15:00 +15°C° 0 mm 6 mps 754 mmHg 57%
    16:00 +14°C° 0 mm 6 mps 754 mmHg 61%
    17:00 +14°C° 0 mm 5 mps 754 mmHg 66%
    18:00 +13°C° 0 mm 5 mps 754 mmHg 69%
    19:00 +13°C° 0 mm 5 mps 755 mmHg 72%
    20:00 +12°C° 0 mm 5 mps 755 mmHg 75%
    21:00 +12°C° 0 mm 5 mps 755 mmHg 76%
    22:00 +12°C° 0 mm 5 mps 755 mmHg 77%
    23:00 +10°C° 0 mm 5 mps 755 mmHg 78%

    28 October, Sunday

    Time Temperature Precipitation Wind Pressure Humidity
    00:00 +10°C° 0 mm 5 mps 755 mmHg 78%
    01:00 +10°C° 0 mm 5 mps 755 mmHg 78%
    02:00 +10°C° 0 mm 5 mps 755 mmHg 79%
    03:00 +10°C° 0 mm 5 mps 755 mmHg 79%
    04:00 +10°C° 0 mm 5 mps 755 mmHg 80%
    05:00 +10°C° 0 mm 5 mps 755 mmHg 81%
    06:00 +12°C° 0 mm 5 mps 756 mmHg 78%
    07:00 +13°C° 0 mm 6 mps 756 mmHg 75%
    08:00 +14°C° 0 mm 7 mps 756 mmHg 72%
    09:00 +15°C° 0 mm 7 mps 756 mmHg 63%
    10:00 +17°C° 0 mm 7 mps 756 mmHg 55%
    11:00 +20°C° 0 mm 8 mps 756 mmHg 46%
    12:00 +20°C° 0 mm 7 mps 756 mmHg 45%
    13:00 +20°C° 0 mm 7 mps 756 mmHg 43%
    14:00 +21°C° 0 mm 7 mps 755 mmHg 42%
    15:00 +19°C° 0 mm 6 mps 755 mmHg 50%
    16:00 +17°C° 0 mm 6 mps 755 mmHg 57%
    17:00 +15°C° 0 mm 5 mps 755 mmHg 64%
    18:00 +15°C° 0 mm 5 mps 755 mmHg 69%
    19:00 +14°C° 0 mm 5 mps 755 mmHg 74%
    20:00 +14°C° 0 mm 5 mps 755 mmHg 79%
    21:00 +13°C° 0 mm 5 mps 755 mmHg 81%
    22:00 +13°C° 0 mm 5 mps 755 mmHg 84%
    23:00 +13°C° 0 mm 5 mps 755 mmHg 86%
    Show more